伽利略0212星导航星座 (GSAT0212 (GALILEO 16))

导读

GALILEO 16 (26C)是欧洲空间局(ESA)主导的伽利略全球卫星导航系统的一颗工作卫星,于2016年11月17日发射入轨。 伽利略系统是欧盟独立运营的民用全球导航定位系统,GALILEO 16承担着全球高精度定位、授时服务任务,可为交通、救援、公共服务等领域提供可靠的独立导航信号,提升了伽利略星座的全球覆盖能力与服务稳定性,设计服役寿命约12年,目前仍在轨稳定运行。

Basic Information
目录编号:
41860
目录名称:
GALILEO 16 (26C)
国际标识:
2016-069B
轨道中心:
EARTH
卫星名称:
伽利略0212星
卫星全名:
伽利略0212星导航星座 (GSAT0212 (GALILEO 16))
卫星状态:
在轨 (已飞行3495 天)
发射日期:
2016-11-17 UTC
国别 :
(ESA)
星等 :
--
Orbit Information
数据来源 国际轨道数据 AOE轨道数据
星历时间 2026-06-10T11:30:49+0800
2天前
查看轨道信息
2026-06-11T10:00:00+0800
1天前
查看轨道信息
半长轴 29600.344km 29600.274km
偏心率 0.0004679 0.000476
轨道倾角 55.492° 55.493°
近地点辐角 355.732° 356.329°
升交点赤经 101.276° 101.250°
平近点角 4.233° 218.654°
近地点 23208.356km 23208.047km
远地点 23236.058km 23236.227km
周期 844.705分钟 844.702分钟
每日圈数 1.704738 1.704744
Detailed Information
平衡模式:
三轴稳定
覆盖范围:
全球
运营商:
欧盟空间计划局
运营商所在国:
法国大都会
使用方式:
暂无
Satellite Introduction
伽利略定位系统(Galileo)是一个全球导航卫星系统,于2016年投入使用由欧盟通过ESA创建,由欧盟空间计划局(EUSPA)运营。该系统有两个地面操控站,并且在高纬度地区提供比其他系统更好的定位服务。该卫星仍在工作。
2D Orbit Map
3D Orbit Map
Orbit Altitude Analysis Chart
Orbit Inclination Analysis Chart
Orbit Comprehensive Analysis Chart
View Comprehensive Chart